FW9881 Weather Reports


Display with metric or nautical units.
time (UTC)temp
F
wind
direction
speed
MPH
gust
MPH
rain 1hr
in
rain 24hr
in
rain mn
in
humidity
%
barometer
mb
20260506164633 62 207 5.0 9.0 0.00 0.02 0.00 79 1010.4
20260506164530 62 237 4.0 8.0 0.00 0.02 0.00 78 1010.6
20260506163531 63 234 3.0 7.0 0.00 0.02 0.00 76 1010.4
20260506161630 63 200 1.0 3.0 0.00 0.02 0.00 75 1010.5
20260506160630 63 183 2.0 13.0 0.00 0.02 0.00 75 1010.8
20260506155646 63 241 3.0 9.0 0.00 0.02 0.00 74 1011.0
20260506154630 63 177 5.0 11.0 0.00 0.02 0.00 75 1011.0
20260506154545 63 194 3.0 7.0 0.00 0.02 0.00 75 1011.1
20260506153530 63 214 6.0 10.0 0.00 0.02 0.00 74 1011.1
20260506152532 63 167 4.0 7.0 0.00 0.02 0.00 75 1011.3
20260506152446 63 253 2.0 4.0 0.00 0.02 0.00 74 1011.4
20260506151531 64 201 3.0 6.0 0.00 0.02 0.00 74 1011.4
20260506150532 64 159 3.0 6.0 0.00 0.02 0.00 74 1011.5
20260506144530 64 196 4.0 6.0 0.00 0.02 0.00 73 1011.3
20260506142630 65 134 2.0 7.0 0.00 0.02 0.00 72 1011.5
20260506141729 65 273 1.0 5.0 0.00 0.02 0.00 72 1011.4
20260506140729 64 191 6.0 11.0 0.00 0.02 0.00 74 1011.1
20260506135730 64 169 4.0 7.0 0.00 0.02 0.00 75 1011.1
20260506134732 64 142 4.0 8.0 0.00 0.02 0.00 77 1011.2
20260506131731 61 226 4.0 6.0 0.00 0.02 0.00 80 1011.9
20260506125731 61 207 5.0 11.0 0.00 0.02 0.00 80 1011.9
20260506125630 61 245 5.0 11.0 0.00 0.02 0.00 80 1012.1
20260506124629 60 234 6.0 12.0 0.00 0.02 0.00 81 1012.0
20260506123729 60 219 6.0 10.0 0.00 0.02 0.00 81 1012.0
20260506122729 60 216 4.0 7.0 0.00 0.02 0.00 81 1012.2
20260506121731 60 230 5.0 11.0 0.00 0.02 0.00 82 1011.8
20260506120731 60 238 3.0 6.0 0.00 0.02 0.00 82 1011.9
20260506115829 60 247 3.0 6.0 0.00 0.02 0.00 81 1011.8
20260506114832 60 229 4.0 11.0 0.00 0.02 0.00 82 1012.1
20260506113846 59 240 5.0 8.0 0.00 0.02 0.00 82 1012.3
20260506112929 59 161 1.0 3.0 0.00 0.02 0.00 83 1012.1
20260506111932 59 236 4.0 8.0 0.00 0.02 0.00 82 1012.3
20260506111831 59 223 3.0 5.0 0.00 0.02 0.00 83 1012.3
20260506105931 58 191 3.0 6.0 0.00 0.02 0.00 82 1012.2
20260506103931 58 239 2.0 4.0 0.00 0.02 0.00 83 1012.0
20260506102931 57 238 3.0 5.0 0.00 0.02 0.00 84 1012.0
20260506101030 57 222 5.0 10.0 0.00 0.02 0.00 84 1012.1
20260506100051 56 225 3.0 5.0 0.00 0.02 0.00 84 1011.9
20260506095946 56 192 3.0 5.0 0.00 0.02 0.00 84 1011.8
20260506095030 57 221 2.0 4.0 0.00 0.02 0.00 83 1011.9
20260506094032 57 218 4.0 9.0 0.00 0.02 0.00 83 1011.7
20260506093129 57 226 4.0 10.0 0.00 0.02 0.00 83 1012.0
20260506092130 57 209 4.0 10.0 0.00 0.02 0.00 83 1011.8
20260506091130 57 205 3.0 8.0 0.00 0.02 0.00 83 1011.8
20260506090131 57 157 4.0 7.0 0.00 0.02 0.00 82 1011.8
20260506084230 57 240 3.0 7.0 0.00 0.02 0.00 82 1011.9
20260506084128 57 216 2.0 3.0 0.00 0.02 0.00 81 1011.9
20260506083131 57 232 1.0 4.0 0.00 0.02 0.00 81 1012.0
20260506082131 57 247 1.0 4.0 0.00 0.02 0.00 80 1012.1
20260506081129 57 221 1.0 5.0 0.00 0.02 0.00 78 1012.0
20260506081029 57 214 1.0 5.0 0.00 0.02 0.00 79 1012.1
20260506072031 59 219 1.0 3.0 0.00 0.02 0.00 75 1012.2
20260506071030 59 236 3.0 6.0 0.00 0.02 0.00 73 1012.3
20260506062045 61 214 6.0 10.0 0.00 0.02 0.00 72 1012.0
20260506061030 60 214 2.0 10.0 0.00 0.02 0.00 72 1011.9
20260506050929 61 205 6.0 11.0 0.00 0.02 0.00 69 1012.1
20260506044831 61 202 2.0 5.0 0.00 0.02 0.00 69 1012.1
20260506043928 61 219 4.0 7.0 0.00 0.02 0.00 70 1012.4
20260506042945 61 186 2.0 7.0 0.00 0.02 0.00 71 1012.4
20260506042830 61 178 2.0 5.0 0.00 0.02 0.00 71 1012.4
20260506041829 61 187 5.0 8.0 0.00 0.02 0.00 72 1012.4
20260506040831 61 248 4.0 5.0 0.00 0.02 0.00 72 1012.5
20260506040728 61 230 1.0 3.0 0.00 0.02 0.00 73 1012.4
20260506035735 61 229 3.0 5.0 0.00 0.02 0.02 74 1012.3
20260506035636 61 210 2.0 4.0 0.00 0.02 0.02 75 1012.3
20260506034734 60 228 3.0 4.0 0.00 0.02 0.02 78 1012.3
20260506033735 59 210 4.0 6.0 0.00 0.02 0.02 81 1012.4
20260506031834 60 176 2.0 5.0 0.00 0.02 0.02 83 1012.1
20260506031735 60 193 2.0 4.0 0.00 0.02 0.02 83 1012.2
20260506030752 59 220 2.0 5.0 0.00 0.02 0.02 85 1012.3
20260506025833 59 247 1.0 3.0 0.00 0.02 0.02 86 1012.3
20260506024850 59 196 2.0 3.0 0.00 0.02 0.02 88 1012.3
20260506023934 59 212 2.0 3.0 0.00 0.02 0.02 88 1012.5
20260506023835 59 239 2.0 2.0 0.00 0.02 0.02 88 1012.5
20260506021835 59 199 1.0 3.0 0.00 0.02 0.02 89 1012.1
20260506020836 59 157 0.0 1.0 0.00 0.02 0.02 88 1012.1
20260506015935 59 157 0.0 0.0 0.00 0.02 0.02 89 1012.2
20260506015836 59 157 0.0 0.0 0.00 0.02 0.02 89 1012.2
20260506014737 59 157 0.0 0.0 0.00 0.02 0.02 88 1012.3
20260506012751 60 157 0.0 0.0 0.00 0.02 0.02 87 1012.1
20260506011837 60 148 1.0 2.0 0.00 0.02 0.02 86 1011.9
20260506011735 60 112 0.0 1.0 0.00 0.02 0.02 86 1011.9
20260506011634 61 112 0.0 2.0 0.00 0.02 0.02 86 1011.9
20260506004833 61 225 0.0 0.0 0.02 0.02 0.02 85 1011.9
20260506003834 61 180 0.0 0.0 0.02 0.02 0.02 83 1011.7
20260506003734 61 180 0.0 0.0 0.02 0.02 0.02 82 1011.8
20260506002737 62 180 0.0 1.0 0.02 0.02 0.02 79 1011.7
20260506001834 63 180 0.0 1.0 0.02 0.02 0.02 76 1011.7
20260506000933 65 22 0.0 0.0 0.02 0.02 0.02 67 1011.5
20260506000834 65 22 0.0 0.0 0.02 0.02 0.02 66 1011.6
20260505235853 69 157 0.0 0.0 0.01 0.01 0.01 55 1011.1
20260505234936 71 337 5.0 6.0 0.00 0.00 0.00 46 1010.6
20260505232933 72 252 3.0 6.0 0.00 0.00 0.00 46 1009.3
20260505231934 73 247 2.0 5.0 0.00 0.00 0.00 45 1009.0
20260505231033 73 226 3.0 5.0 0.00 0.00 0.00 44 1008.9
20260505230951 73 229 7.0 15.0 0.00 0.00 0.00 45 1008.9
20260505223036 75 233 5.0 14.0 0.00 0.00 0.00 42 1008.1
20260505222933 75 197 4.0 8.0 0.00 0.00 0.00 43 1008.1
20260505221833 75 252 5.0 11.0 0.00 0.00 0.00 41 1007.8
20260505220834 76 224 8.0 14.0 0.00 0.00 0.00 40 1007.9
20260505215851 77 237 5.0 9.0 0.00 0.00 0.00 38 1007.5
20260505214933 78 201 8.0 17.0 0.00 0.00 0.00 39 1007.6
20260505214850 78 197 3.0 6.0 0.00 0.00 0.00 39 1007.6
20260505213835 78 227 5.0 11.0 0.00 0.00 0.00 38 1007.5
20260505213752 78 192 4.0 8.0 0.00 0.00 0.00 39 1007.3
20260505211833 78 213 4.0 7.0 0.00 0.00 0.00 37 1007.2
20260505210835 79 244 4.0 11.0 0.00 0.00 0.00 37 1006.9
20260505205835 79 222 8.0 18.0 0.00 0.00 0.00 36 1007.0
20260505204933 79 220 7.0 16.0 0.00 0.00 0.00 37 1007.0
20260505204003 78 193 7.0 11.0 0.00 0.00 0.00 37 1007.1
20260505204000 78 218 5.0 13.0 0.00 0.00 0.00 36 1007.1
20260505203533 78 205 5.0 10.0 0.00 0.00 0.00 36 1007.1
20260505202534 78 233 7.0 15.0 0.00 0.00 0.00 35 1007.2
20260505202434 78 194 6.0 18.0 0.00 0.00 0.00 36 1007.2
20260505201434 79 247 4.0 8.0 0.00 0.00 0.00 35 1007.3
20260505200533 79 244 8.0 16.0 0.00 0.00 0.00 35 1007.3
20260505195535 79 203 4.0 7.0 0.00 0.00 0.00 35 1007.3
20260505195435 79 236 6.0 14.0 0.00 0.00 0.00 36 1007.3
20260505194449 78 208 4.0 9.0 0.00 0.00 0.00 36 1007.3
20260505193535 78 223 6.0 13.0 0.00 0.00 0.00 36 1007.5
20260505192534 79 202 8.0 15.0 0.00 0.00 0.00 37 1007.4
20260505192434 79 195 6.0 13.0 0.00 0.00 0.00 37 1007.5
20260505191451 78 259 6.0 13.0 0.00 0.00 0.00 35 1007.6
20260505190535 78 230 6.0 15.0 0.00 0.00 0.00 36 1007.6
20260505185536 79 240 5.0 14.0 0.00 0.00 0.00 36 1007.6
20260505185435 79 191 6.0 17.0 0.00 0.00 0.00 35 1007.6
20260505184433 78 240 5.0 9.0 0.00 0.00 0.00 36 1007.8
20260505183433 79 236 4.0 7.0 0.00 0.00 0.00 35 1008.0
20260505183334 79 222 4.0 9.0 0.00 0.00 0.00 36 1008.1
20260505182336 79 209 9.0 15.0 0.00 0.00 0.00 35 1008.2
20260505181335 79 225 4.0 9.0 0.00 0.00 0.00 35 1008.4
20260505180433 78 241 6.0 12.0 0.00 0.00 0.00 35 1008.4
20260505175433 78 236 6.0 10.0 0.00 0.00 0.00 35 1008.6
20260505174434 78 233 6.0 13.0 0.00 0.00 0.00 35 1008.6
20260505174334 78 171 8.0 23.0 0.00 0.00 0.00 36 1008.5
20260505173334 79 192 7.0 20.0 0.00 0.00 0.00 37 1008.8
20260505172333 78 142 7.0 12.0 0.00 0.00 0.00 36 1008.7
20260505172233 78 173 8.0 18.0 0.00 0.00 0.00 36 1008.8
20260505171235 78 221 4.0 8.0 0.00 0.00 0.00 37 1008.8
20260505170234 77 162 6.0 14.0 0.00 0.00 0.00 38 1009.0